contact:dominique.lefevre@mio.osupytheas.fr, maurice.libes@osupytheas.fr, didier.mallarino@osupytheas.fr
Project:EMSO http://www.emso-fr.org/EMSO-France
Depth: 2436.0 m
Title:EMSO Ligure Ouest : Data MII capteur OXYGEN
DateTime,Latitude,Longitude,Optode-Type,Optode_Serial,Oxygen,Saturation_Oxygen,Temperature
DateTime,Latitude,Longitude,Optode-Type,Optode_Serial,µmol.l-1,%,degC
2017-11-15T00:01:12,42.805,6.029,4330,1995,196.894,60.211,13.287
2017-11-15T00:04:12,42.805,6.029,4330,1995,196.944,60.226,13.287
2017-11-15T00:07:12,42.805,6.029,4330,1995,197.104,60.276,13.287
2017-11-15T00:10:12,42.805,6.029,4330,1995,197.130,60.284,13.287
2017-11-15T00:13:12,42.805,6.029,4330,1995,197.100,60.274,13.287
2017-11-15T00:16:12,42.805,6.029,4330,1995,197.164,60.294,13.287
2017-11-15T00:19:12,42.805,6.029,4330,1995,197.216,60.309,13.287
2017-11-15T00:22:12,42.805,6.029,4330,1995,197.239,60.316,13.286
2017-11-15T00:25:12,42.805,6.029,4330,1995,197.243,60.319,13.288
2017-11-15T00:28:12,42.805,6.029,4330,1995,197.298,60.334,13.286
2017-11-15T00:31:12,42.805,6.029,4330,1995,197.296,60.333,13.286
2017-11-15T00:34:12,42.805,6.029,4330,1995,197.132,60.284,13.287
2017-11-15T00:37:12,42.805,6.029,4330,1995,197.250,60.319,13.286
2017-11-15T00:40:12,42.805,6.029,4330,1995,197.287,60.331,13.287
2017-11-15T00:43:12,42.805,6.029,4330,1995,197.101,60.276,13.288
2017-11-15T00:46:12,42.805,6.029,4330,1995,197.120,60.280,13.287
2017-11-15T00:49:12,42.805,6.029,4330,1995,197.227,60.313,13.286
2017-11-15T00:52:12,42.805,6.029,4330,1995,197.232,60.314,13.286
2017-11-15T00:55:12,42.805,6.029,4330,1995,197.137,60.286,13.287
2017-11-15T00:58:12,42.805,6.029,4330,1995,197.066,60.264,13.287
2017-11-15T01:01:12,42.805,6.029,4330,1995,196.979,60.239,13.288
2017-11-15T01:04:12,42.805,6.029,4330,1995,196.777,60.176,13.287
2017-11-15T01:07:12,42.805,6.029,4330,1995,196.944,60.229,13.288
2017-11-15T01:10:12,42.805,6.029,4330,1995,197.008,60.247,13.287
2017-11-15T01:13:12,42.805,6.029,4330,1995,197.053,60.260,13.287
2017-11-15T01:16:12,42.805,6.029,4330,1995,197.170,60.297,13.287
2017-11-15T01:19:12,42.805,6.029,4330,1995,196.867,60.206,13.289
2017-11-15T01:22:12,42.805,6.029,4330,1995,196.684,60.148,13.287
2017-11-15T01:25:12,42.805,6.029,4330,1995,196.514,60.098,13.289
2017-11-15T01:28:12,42.805,6.029,4330,1995,196.344,60.045,13.288
2017-11-15T01:31:12,42.805,6.029,4330,1995,196.266,60.021,13.288
2017-11-15T01:34:12,42.805,6.029,4330,1995,196.187,59.996,13.288
2017-11-15T01:37:12,42.805,6.029,4330,1995,196.209,60.003,13.288
2017-11-15T01:40:12,42.805,6.029,4330,1995,196.055,59.956,13.288
2017-11-15T01:43:12,42.805,6.029,4330,1995,196.079,59.963,13.287
2017-11-15T01:46:12,42.805,6.029,4330,1995,196.020,59.946,13.288
2017-11-15T01:49:12,42.805,6.029,4330,1995,196.165,59.989,13.288
2017-11-15T01:52:12,42.805,6.029,4330,1995,196.047,59.954,13.288
2017-11-15T01:55:12,42.805,6.029,4330,1995,196.041,59.951,13.287
2017-11-15T01:58:12,42.805,6.029,4330,1995,196.164,59.988,13.287
2017-11-15T02:01:12,42.805,6.029,4330,1995,196.297,60.030,13.287
2017-11-15T02:04:12,42.805,6.029,4330,1995,196.271,60.021,13.287
2017-11-15T02:07:12,42.805,6.029,4330,1995,196.161,59.988,13.287
2017-11-15T02:10:12,42.805,6.029,4330,1995,196.098,59.969,13.288
2017-11-15T02:13:12,42.805,6.029,4330,1995,195.957,59.927,13.288
2017-11-15T02:16:12,42.805,6.029,4330,1995,196.165,59.990,13.288
2017-11-15T02:19:12,42.805,6.029,4330,1995,196.114,59.973,13.287
2017-11-15T02:22:12,42.805,6.029,4330,1995,196.128,59.978,13.287
2017-11-15T02:25:12,42.805,6.029,4330,1995,196.305,60.031,13.287
2017-11-15T02:28:12,42.805,6.029,4330,1995,196.122,59.976,13.287
2017-11-15T02:31:12,42.805,6.029,4330,1995,196.059,59.956,13.287
2017-11-15T02:34:12,42.805,6.029,4330,1995,196.007,59.940,13.287
2017-11-15T02:37:12,42.805,6.029,4330,1995,195.771,59.868,13.287
2017-11-15T02:40:12,42.805,6.029,4330,1995,195.834,59.887,13.287
2017-11-15T02:43:12,42.805,6.029,4330,1995,195.996,59.937,13.287
2017-11-15T02:46:12,42.805,6.029,4330,1995,196.023,59.945,13.287
2017-11-15T02:49:12,42.805,6.029,4330,1995,195.813,59.881,13.287
2017-11-15T02:52:12,42.805,6.029,4330,1995,196.174,59.991,13.287
2017-11-15T02:55:12,42.805,6.029,4330,1995,196.472,60.082,13.286
2017-11-15T02:58:12,42.805,6.029,4330,1995,196.475,60.083,13.287
2017-11-15T03:01:12,42.805,6.029,4330,1995,196.489,60.087,13.286
2017-11-15T03:04:12,42.805,6.029,4330,1995,196.518,60.095,13.286
2017-11-15T03:07:12,42.805,6.029,4330,1995,196.464,60.081,13.287
2017-11-15T03:10:12,42.805,6.029,4330,1995,196.603,60.123,13.287
2017-11-15T03:13:12,42.805,6.029,4330,1995,196.638,60.133,13.287
2017-11-15T03:16:12,42.805,6.029,4330,1995,196.631,60.130,13.286
2017-11-15T03:19:12,42.805,6.029,4330,1995,196.498,60.090,13.286
2017-11-15T03:22:12,42.805,6.029,4330,1995,196.448,60.074,13.286
2017-11-15T03:25:12,42.805,6.029,4330,1995,196.405,60.061,13.286
2017-11-15T03:28:12,42.805,6.029,4330,1995,196.356,60.046,13.286
2017-11-15T03:31:12,42.805,6.029,4330,1995,196.838,60.193,13.286
2017-11-15T03:34:12,42.805,6.029,4330,1995,196.821,60.188,13.286
2017-11-15T03:37:12,42.805,6.029,4330,1995,196.660,60.139,13.286
2017-11-15T03:40:12,42.805,6.029,4330,1995,196.300,60.029,13.286
2017-11-15T03:43:12,42.805,6.029,4330,1995,196.522,60.096,13.286
2017-11-15T03:46:12,42.805,6.029,4330,1995,196.446,60.073,13.286
2017-11-15T03:49:12,42.805,6.029,4330,1995,196.496,60.089,13.286
2017-11-15T03:52:12,42.805,6.029,4330,1995,196.653,60.136,13.286
2017-11-15T03:55:12,42.805,6.029,4330,1995,196.754,60.168,13.286
2017-11-15T03:58:12,42.805,6.029,4330,1995,196.688,60.147,13.286
2017-11-15T04:01:12,42.805,6.029,4330,1995,196.820,60.188,13.286
2017-11-15T04:04:12,42.805,6.029,4330,1995,196.800,60.181,13.286
2017-11-15T04:07:12,42.805,6.029,4330,1995,196.716,60.156,13.286
2017-11-15T04:10:12,42.805,6.029,4330,1995,196.883,60.206,13.285
2017-11-15T04:13:12,42.805,6.029,4330,1995,196.928,60.220,13.286
2017-11-15T04:16:12,42.805,6.029,4330,1995,196.928,60.220,13.286
2017-11-15T04:19:12,42.805,6.029,4330,1995,196.860,60.199,13.286
2017-11-15T04:22:12,42.805,6.029,4330,1995,196.767,60.171,13.286
2017-11-15T04:25:12,42.805,6.029,4330,1995,196.830,60.190,13.286
2017-11-15T04:28:12,42.805,6.029,4330,1995,196.811,60.185,13.286
2017-11-15T04:31:12,42.805,6.029,4330,1995,196.597,60.119,13.286
2017-11-15T04:34:12,42.805,6.029,4330,1995,196.536,60.100,13.286
2017-11-15T04:37:12,42.805,6.029,4330,1995,196.444,60.072,13.286
2017-11-15T04:40:12,42.805,6.029,4330,1995,196.447,60.074,13.286
2017-11-15T04:43:12,42.805,6.029,4330,1995,196.352,60.045,13.287
2017-11-15T04:46:12,42.805,6.029,4330,1995,196.172,59.989,13.286
2017-11-15T04:49:12,42.805,6.029,4330,1995,196.515,60.094,13.286
2017-11-15T04:52:12,42.805,6.029,4330,1995,196.716,60.155,13.286
2017-11-15T04:55:12,42.805,6.029,4330,1995,196.739,60.162,13.286
2017-11-15T04:58:12,42.805,6.029,4330,1995,196.290,60.025,13.286
2017-11-15T05:01:12,42.805,6.029,4330,1995,193.753,59.249,13.286
2017-11-15T05:04:12,42.805,6.029,4330,1995,195.535,59.794,13.286
2017-11-15T05:07:12,42.805,6.029,4330,1995,196.301,60.029,13.286
2017-11-15T05:10:12,42.805,6.029,4330,1995,196.437,60.070,13.286
2017-11-15T05:13:12,42.805,6.029,4330,1995,196.445,60.073,13.286
2017-11-15T05:16:12,42.805,6.029,4330,1995,196.692,60.148,13.286
2017-11-15T05:19:12,42.805,6.029,4330,1995,196.743,60.164,13.286
2017-11-15T05:22:12,42.805,6.029,4330,1995,196.734,60.161,13.286
2017-11-15T05:25:12,42.805,6.029,4330,1995,196.699,60.151,13.286
2017-11-15T05:28:12,42.805,6.029,4330,1995,196.718,60.157,13.287
2017-11-15T05:31:12,42.805,6.029,4330,1995,196.696,60.150,13.286
2017-11-15T05:34:12,42.805,6.029,4330,1995,196.695,60.149,13.286
2017-11-15T05:37:12,42.805,6.029,4330,1995,196.622,60.127,13.286
2017-11-15T05:40:12,42.805,6.029,4330,1995,196.707,60.153,13.286
2017-11-15T05:43:12,42.805,6.029,4330,1995,196.656,60.137,13.286
2017-11-15T05:46:12,42.805,6.029,4330,1995,196.642,60.133,13.286
2017-11-15T05:49:12,42.805,6.029,4330,1995,196.532,60.099,13.286
2017-11-15T05:52:12,42.805,6.029,4330,1995,196.653,60.137,13.286
2017-11-15T05:55:12,42.805,6.029,4330,1995,196.708,60.153,13.286
2017-11-15T05:58:12,42.805,6.029,4330,1995,196.673,60.143,13.286
2017-11-15T06:01:12,42.805,6.029,4330,1995,196.666,60.140,13.286
2017-11-15T06:04:12,42.805,6.029,4330,1995,196.802,60.182,13.286
2017-11-15T06:07:12,42.805,6.029,4330,1995,196.800,60.182,13.286
2017-11-15T06:10:12,42.805,6.029,4330,1995,196.635,60.131,13.286
2017-11-15T06:13:12,42.805,6.029,4330,1995,196.702,60.151,13.286
2017-11-15T06:16:12,42.805,6.029,4330,1995,196.965,60.232,13.286
2017-11-15T06:19:12,42.805,6.029,4330,1995,196.923,60.219,13.286
2017-11-15T06:22:12,42.805,6.029,4330,1995,196.760,60.169,13.286
2017-11-15T06:25:12,42.805,6.029,4330,1995,196.761,60.169,13.286
2017-11-15T06:28:11,42.805,6.029,4330,1995,197.005,60.244,13.286
2017-11-15T06:31:11,42.805,6.029,4330,1995,196.986,60.239,13.286
2017-11-15T06:34:11,42.805,6.029,4330,1995,197.049,60.258,13.286
2017-11-15T06:37:11,42.805,6.029,4330,1995,196.942,60.225,13.286
2017-11-15T06:40:11,42.805,6.029,4330,1995,196.916,60.217,13.286
2017-11-15T06:43:11,42.805,6.029,4330,1995,197.093,60.271,13.286
2017-11-15T06:46:11,42.805,6.029,4330,1995,197.259,60.321,13.286
2017-11-15T06:49:11,42.805,6.029,4330,1995,197.318,60.340,13.286
2017-11-15T06:52:11,42.805,6.029,4330,1995,197.389,60.361,13.286
2017-11-15T06:55:11,42.805,6.029,4330,1995,197.469,60.385,13.286
2017-11-15T06:58:11,42.805,6.029,4330,1995,197.569,60.416,13.286
2017-11-15T07:01:11,42.805,6.029,4330,1995,197.515,60.400,13.286
2017-11-15T07:04:11,42.805,6.029,4330,1995,197.507,60.397,13.286
2017-11-15T07:07:11,42.805,6.029,4330,1995,197.781,60.481,13.286
2017-11-15T07:10:11,42.805,6.029,4330,1995,197.820,60.494,13.286
2017-11-15T07:13:11,42.805,6.029,4330,1995,197.864,60.506,13.286
2017-11-15T07:16:11,42.805,6.029,4330,1995,197.896,60.516,13.286
2017-11-15T07:19:11,42.805,6.029,4330,1995,197.850,60.502,13.286
2017-11-15T07:22:11,42.805,6.029,4330,1995,197.988,60.544,13.286
2017-11-15T07:25:11,42.805,6.029,4330,1995,198.010,60.551,13.286
2017-11-15T07:28:11,42.805,6.029,4330,1995,198.091,60.576,13.286
2017-11-15T07:31:11,42.805,6.029,4330,1995,198.125,60.586,13.286
2017-11-15T07:34:11,42.805,6.029,4330,1995,198.233,60.619,13.286
2017-11-15T07:37:11,42.805,6.029,4330,1995,198.317,60.645,13.286
2017-11-15T07:40:11,42.805,6.029,4330,1995,198.306,60.641,13.285
2017-11-15T07:43:11,42.805,6.029,4330,1995,198.404,60.671,13.286
2017-11-15T07:46:11,42.805,6.029,4330,1995,198.375,60.662,13.286
2017-11-15T07:49:11,42.805,6.029,4330,1995,198.343,60.653,13.286
2017-11-15T07:52:11,42.805,6.029,4330,1995,198.217,60.614,13.286
2017-11-15T07:55:11,42.805,6.029,4330,1995,198.233,60.619,13.286
2017-11-15T07:58:11,42.805,6.029,4330,1995,198.099,60.578,13.286
2017-11-15T08:01:11,42.805,6.029,4330,1995,198.058,60.566,13.286
2017-11-15T08:04:11,42.805,6.029,4330,1995,198.063,60.567,13.285
2017-11-15T08:07:11,42.805,6.029,4330,1995,198.050,60.563,13.285
2017-11-15T08:10:11,42.805,6.029,4330,1995,197.983,60.543,13.286
2017-11-15T08:13:11,42.805,6.029,4330,1995,197.827,60.495,13.286
2017-11-15T08:16:11,42.805,6.029,4330,1995,197.729,60.465,13.286
2017-11-15T08:19:11,42.805,6.029,4330,1995,197.573,60.417,13.286
2017-11-15T08:22:11,42.805,6.029,4330,1995,197.553,60.411,13.285
2017-11-15T08:25:11,42.805,6.029,4330,1995,197.574,60.418,13.286
2017-11-15T08:28:11,42.805,6.029,4330,1995,197.460,60.383,13.285
2017-11-15T08:31:11,42.805,6.029,4330,1995,197.461,60.383,13.286
2017-11-15T08:34:11,42.805,6.029,4330,1995,197.276,60.327,13.286
2017-11-15T08:37:11,42.805,6.029,4330,1995,197.250,60.319,13.286
2017-11-15T08:40:11,42.805,6.029,4330,1995,197.245,60.317,13.286
2017-11-15T08:43:11,42.805,6.029,4330,1995,197.349,60.349,13.286
2017-11-15T08:46:11,42.805,6.029,4330,1995,197.386,60.360,13.286
2017-11-15T08:49:11,42.805,6.029,4330,1995,197.295,60.333,13.286
2017-11-15T08:52:11,42.805,6.029,4330,1995,197.325,60.342,13.286
2017-11-15T08:55:11,42.805,6.029,4330,1995,197.280,60.328,13.286
2017-11-15T08:58:11,42.805,6.029,4330,1995,197.178,60.297,13.286
2017-11-15T09:01:11,42.805,6.029,4330,1995,197.189,60.300,13.286
2017-11-15T09:04:11,42.805,6.029,4330,1995,197.283,60.329,13.286
2017-11-15T09:07:11,42.805,6.029,4330,1995,197.273,60.326,13.286
2017-11-15T09:10:11,42.805,6.029,4330,1995,197.407,60.366,13.285
2017-11-15T09:13:11,42.805,6.029,4330,1995,197.410,60.367,13.286
2017-11-15T09:16:11,42.805,6.029,4330,1995,197.460,60.383,13.286
2017-11-15T09:19:11,42.805,6.029,4330,1995,197.487,60.391,13.286
2017-11-15T09:22:11,42.805,6.029,4330,1995,197.391,60.362,13.286
2017-11-15T09:25:11,42.805,6.029,4330,1995,197.251,60.319,13.286
2017-11-15T09:28:11,42.805,6.029,4330,1995,197.182,60.298,13.286
2017-11-15T09:31:11,42.805,6.029,4330,1995,197.139,60.285,13.286
2017-11-15T09:34:11,42.805,6.029,4330,1995,197.067,60.263,13.286
2017-11-15T09:37:11,42.805,6.029,4330,1995,197.021,60.249,13.286
2017-11-15T09:40:11,42.805,6.029,4330,1995,197.045,60.256,13.286
2017-11-15T09:43:11,42.805,6.029,4330,1995,197.088,60.269,13.286
2017-11-15T09:46:11,42.805,6.029,4330,1995,197.069,60.263,13.286
2017-11-15T09:49:11,42.805,6.029,4330,1995,197.085,60.268,13.285
2017-11-15T09:52:11,42.805,6.029,4330,1995,197.158,60.290,13.286
2017-11-15T09:55:11,42.805,6.029,4330,1995,197.165,60.293,13.286
2017-11-15T09:58:11,42.805,6.029,4330,1995,197.109,60.276,13.286
2017-11-15T10:01:11,42.805,6.029,4330,1995,197.137,60.284,13.286
2017-11-15T10:04:11,42.805,6.029,4330,1995,197.178,60.297,13.286
2017-11-15T10:07:11,42.805,6.029,4330,1995,197.093,60.271,13.286
2017-11-15T10:10:11,42.805,6.029,4330,1995,197.154,60.289,13.286
2017-11-15T10:13:11,42.805,6.029,4330,1995,197.309,60.337,13.286
2017-11-15T10:16:11,42.805,6.029,4330,1995,197.342,60.347,13.286
2017-11-15T10:19:11,42.805,6.029,4330,1995,197.462,60.383,13.286
2017-11-15T10:22:11,42.805,6.029,4330,1995,197.442,60.377,13.286
2017-11-15T10:25:11,42.805,6.029,4330,1995,197.505,60.397,13.286
2017-11-15T10:28:11,42.805,6.029,4330,1995,197.478,60.388,13.286
2017-11-15T10:31:11,42.805,6.029,4330,1995,197.533,60.405,13.286
2017-11-15T10:34:11,42.805,6.029,4330,1995,197.582,60.421,13.286
2017-11-15T10:37:11,42.805,6.029,4330,1995,197.563,60.415,13.286
2017-11-15T10:40:11,42.805,6.029,4330,1995,197.575,60.418,13.286
2017-11-15T10:43:11,42.805,6.029,4330,1995,197.632,60.437,13.287
2017-11-15T10:46:11,42.805,6.029,4330,1995,197.566,60.416,13.286
2017-11-15T10:49:11,42.805,6.029,4330,1995,197.641,60.438,13.286
2017-11-15T10:52:11,42.805,6.029,4330,1995,197.653,60.443,13.286
2017-11-15T10:55:11,42.805,6.029,4330,1995,197.656,60.443,13.286
2017-11-15T10:58:11,42.805,6.029,4330,1995,197.622,60.433,13.286
2017-11-15T11:01:11,42.805,6.029,4330,1995,197.662,60.445,13.286
2017-11-15T11:04:11,42.805,6.029,4330,1995,197.664,60.446,13.286
2017-11-15T11:07:11,42.805,6.029,4330,1995,197.699,60.456,13.286
2017-11-15T11:10:11,42.805,6.029,4330,1995,197.672,60.448,13.286
2017-11-15T11:13:11,42.805,6.029,4330,1995,197.544,60.409,13.286
2017-11-15T11:16:11,42.805,6.029,4330,1995,197.457,60.383,13.286
2017-11-15T11:19:11,42.805,6.029,4330,1995,197.597,60.425,13.286
2017-11-15T11:22:11,42.805,6.029,4330,1995,197.444,60.379,13.286
2017-11-15T11:25:11,42.805,6.029,4330,1995,197.442,60.379,13.287
2017-11-15T11:28:11,42.805,6.029,4330,1995,197.402,60.366,13.286
2017-11-15T11:31:11,42.805,6.029,4330,1995,197.270,60.326,13.287
2017-11-15T11:34:11,42.805,6.029,4330,1995,197.294,60.333,13.286
2017-11-15T11:37:11,42.805,6.029,4330,1995,197.278,60.328,13.286
2017-11-15T11:40:11,42.805,6.029,4330,1995,197.302,60.335,13.286
2017-11-15T11:43:11,42.805,6.029,4330,1995,197.395,60.364,13.287
2017-11-15T11:46:11,42.805,6.029,4330,1995,197.350,60.350,13.286
2017-11-15T11:49:11,42.805,6.029,4330,1995,197.337,60.346,13.286
2017-11-15T11:52:11,42.805,6.029,4330,1995,197.299,60.335,13.287
2017-11-15T11:55:11,42.805,6.029,4330,1995,197.314,60.340,13.287
2017-11-15T11:58:11,42.805,6.029,4330,1995,197.257,60.322,13.287
2017-11-15T12:01:11,42.805,6.029,4330,1995,197.229,60.313,13.286
2017-11-15T12:04:11,42.805,6.029,4330,1995,197.224,60.312,13.287
2017-11-15T12:07:11,42.805,6.029,4330,1995,197.271,60.326,13.286
2017-11-15T12:10:11,42.805,6.029,4330,1995,197.441,60.378,13.286
2017-11-15T12:13:11,42.805,6.029,4330,1995,197.461,60.384,13.286
2017-11-15T12:16:11,42.805,6.029,4330,1995,197.398,60.365,13.286
2017-11-15T12:19:11,42.805,6.029,4330,1995,197.306,60.337,13.287
2017-11-15T12:22:11,42.805,6.029,4330,1995,197.296,60.334,13.287
2017-11-15T12:25:11,42.805,6.029,4330,1995,197.284,60.330,13.286
2017-11-15T12:28:11,42.805,6.029,4330,1995,197.214,60.309,13.287
2017-11-15T12:31:11,42.805,6.029,4330,1995,197.165,60.294,13.287
2017-11-15T12:34:11,42.805,6.029,4330,1995,197.157,60.292,13.287
2017-11-15T12:37:11,42.805,6.029,4330,1995,197.075,60.267,13.287
2017-11-15T12:40:11,42.805,6.029,4330,1995,197.044,60.258,13.287
2017-11-15T12:43:11,42.805,6.029,4330,1995,196.964,60.234,13.287
2017-11-15T12:46:11,42.805,6.029,4330,1995,196.946,60.228,13.287
2017-11-15T12:49:11,42.805,6.029,4330,1995,196.943,60.227,13.287
2017-11-15T12:52:11,42.805,6.029,4330,1995,196.926,60.221,13.287
2017-11-15T12:55:11,42.805,6.029,4330,1995,196.873,60.205,13.287
2017-11-15T12:58:11,42.805,6.029,4330,1995,196.810,60.186,13.287
2017-11-15T13:01:11,42.805,6.029,4330,1995,196.870,60.204,13.287
2017-11-15T13:04:11,42.805,6.029,4330,1995,196.971,60.234,13.286
2017-11-15T13:07:11,42.805,6.029,4330,1995,196.928,60.222,13.287
2017-11-15T13:10:11,42.805,6.029,4330,1995,196.989,60.241,13.287
2017-11-15T13:13:11,42.805,6.029,4330,1995,197.072,60.266,13.287
2017-11-15T13:16:11,42.805,6.029,4330,1995,196.942,60.227,13.287
2017-11-15T13:19:11,42.805,6.029,4330,1995,196.819,60.189,13.287
2017-11-15T13:22:11,42.805,6.029,4330,1995,196.733,60.162,13.287
2017-11-15T13:25:11,42.805,6.029,4330,1995,196.694,60.150,13.287
2017-11-15T13:28:11,42.805,6.029,4330,1995,196.667,60.142,13.287
2017-11-15T13:31:11,42.805,6.029,4330,1995,196.637,60.133,13.287
2017-11-15T13:34:11,42.805,6.029,4330,1995,196.633,60.132,13.287
2017-11-15T13:37:11,42.805,6.029,4330,1995,196.655,60.139,13.288
2017-11-15T13:40:11,42.805,6.029,4330,1995,196.615,60.126,13.287
2017-11-15T13:43:11,42.805,6.029,4330,1995,196.683,60.147,13.287
2017-11-15T13:46:11,42.805,6.029,4330,1995,196.596,60.121,13.287
2017-11-15T13:49:11,42.805,6.029,4330,1995,196.517,60.097,13.288
2017-11-15T13:52:11,42.805,6.029,4330,1995,196.505,60.093,13.287
2017-11-15T13:55:11,42.805,6.029,4330,1995,196.432,60.070,13.287
2017-11-15T13:58:11,42.805,6.029,4330,1995,196.419,60.066,13.287
2017-11-15T14:01:11,42.805,6.029,4330,1995,196.467,60.081,13.287
2017-11-15T14:04:11,42.805,6.029,4330,1995,196.195,59.999,13.288
2017-11-15T14:07:11,42.805,6.029,4330,1995,195.988,59.935,13.288
2017-11-15T14:10:11,42.805,6.029,4330,1995,195.954,59.924,13.287
2017-11-15T14:13:11,42.805,6.029,4330,1995,195.985,59.934,13.287
2017-11-15T14:16:11,42.805,6.029,4330,1995,196.002,59.940,13.288
2017-11-15T14:19:11,42.805,6.029,4330,1995,195.901,59.910,13.288
2017-11-15T14:22:11,42.805,6.029,4330,1995,195.848,59.893,13.288
2017-11-15T14:25:11,42.805,6.029,4330,1995,195.764,59.866,13.287
2017-11-15T14:28:11,42.805,6.029,4330,1995,195.773,59.870,13.288
2017-11-15T14:31:11,42.805,6.029,4330,1995,195.882,59.903,13.288
2017-11-15T14:34:11,42.805,6.029,4330,1995,195.829,59.887,13.288
2017-11-15T14:37:11,42.805,6.029,4330,1995,195.535,59.796,13.287
2017-11-15T14:40:11,42.805,6.029,4330,1995,195.519,59.792,13.288
2017-11-15T14:43:11,42.805,6.029,4330,1995,195.395,59.754,13.288
2017-11-15T14:46:11,42.805,6.029,4330,1995,195.431,59.765,13.288
2017-11-15T14:49:11,42.805,6.029,4330,1995,195.399,59.757,13.289
2017-11-15T14:52:11,42.805,6.029,4330,1995,195.848,59.894,13.289
2017-11-15T14:55:11,42.805,6.029,4330,1995,195.997,59.939,13.289
2017-11-15T14:58:11,42.805,6.029,4330,1995,196.008,59.942,13.288
2017-11-15T15:01:11,42.805,6.029,4330,1995,195.899,59.909,13.288
2017-11-15T15:04:11,42.805,6.029,4330,1995,195.697,59.848,13.289
2017-11-15T15:07:11,42.805,6.029,4330,1995,195.816,59.883,13.288
2017-11-15T15:10:11,42.805,6.029,4330,1995,195.916,59.914,13.288
2017-11-15T15:13:11,42.805,6.029,4330,1995,195.736,59.858,13.287
2017-11-15T15:16:11,42.805,6.029,4330,1995,195.862,59.898,13.289
2017-11-15T15:19:11,42.805,6.029,4330,1995,195.778,59.872,13.288
2017-11-15T15:22:11,42.805,6.029,4330,1995,195.688,59.843,13.288
2017-11-15T15:25:11,42.805,6.029,4330,1995,195.664,59.836,13.287
2017-11-15T15:28:11,42.805,6.029,4330,1995,195.616,59.822,13.288
2017-11-15T15:31:11,42.805,6.029,4330,1995,195.669,59.837,13.287
2017-11-15T15:34:11,42.805,6.029,4330,1995,195.537,59.798,13.288
2017-11-15T15:37:11,42.805,6.029,4330,1995,195.450,59.771,13.287
2017-11-15T15:40:11,42.805,6.029,4330,1995,195.419,59.761,13.287
2017-11-15T15:43:11,42.805,6.029,4330,1995,195.492,59.783,13.287
2017-11-15T15:46:11,42.805,6.029,4330,1995,195.433,59.766,13.288
2017-11-15T15:49:11,42.805,6.029,4330,1995,195.511,59.790,13.288
2017-11-15T15:52:11,42.805,6.029,4330,1995,195.379,59.750,13.288
2017-11-15T15:55:11,42.805,6.029,4330,1995,195.369,59.746,13.288
2017-11-15T15:58:11,42.805,6.029,4330,1995,195.589,59.814,13.288
2017-11-15T16:01:11,42.805,6.029,4330,1995,195.539,59.798,13.287
2017-11-15T16:04:11,42.805,6.029,4330,1995,195.596,59.816,13.288
2017-11-15T16:07:11,42.805,6.029,4330,1995,195.434,59.766,13.287
2017-11-15T16:10:11,42.805,6.029,4330,1995,195.456,59.772,13.287
2017-11-15T16:13:11,42.805,6.029,4330,1995,195.418,59.761,13.287
2017-11-15T16:16:11,42.805,6.029,4330,1995,195.479,59.779,13.287
2017-11-15T16:19:11,42.805,6.029,4330,1995,195.562,59.804,13.287
2017-11-15T16:22:11,42.805,6.029,4330,1995,195.745,59.860,13.287
2017-11-15T16:25:11,42.805,6.029,4330,1995,195.737,59.859,13.288
2017-11-15T16:28:11,42.805,6.029,4330,1995,195.819,59.883,13.287
2017-11-15T16:31:11,42.805,6.029,4330,1995,195.817,59.882,13.287
2017-11-15T16:34:11,42.805,6.029,4330,1995,196.094,59.967,13.287
2017-11-15T16:37:11,42.805,6.029,4330,1995,196.165,59.988,13.287
2017-11-15T16:40:11,42.805,6.029,4330,1995,196.256,60.017,13.287
2017-11-15T16:43:11,42.805,6.029,4330,1995,196.288,60.026,13.287
2017-11-15T16:46:11,42.805,6.029,4330,1995,196.360,60.048,13.287
2017-11-15T16:49:11,42.805,6.029,4330,1995,196.291,60.026,13.286
2017-11-15T16:52:11,42.805,6.029,4330,1995,196.263,60.018,13.286
2017-11-15T16:55:11,42.805,6.029,4330,1995,196.362,60.048,13.287
2017-11-15T16:58:11,42.805,6.029,4330,1995,196.613,60.126,13.287
2017-11-15T17:01:11,42.805,6.029,4330,1995,196.667,60.142,13.287
2017-11-15T17:04:11,42.805,6.029,4330,1995,196.843,60.195,13.286
2017-11-15T17:07:11,42.805,6.029,4330,1995,196.886,60.208,13.287
2017-11-15T17:10:11,42.805,6.029,4330,1995,196.815,60.186,13.286
2017-11-15T17:13:11,42.805,6.029,4330,1995,196.857,60.200,13.287
2017-11-15T17:16:11,42.805,6.029,4330,1995,196.892,60.211,13.287
2017-11-15T17:19:11,42.805,6.029,4330,1995,196.992,60.241,13.286
2017-11-15T17:22:11,42.805,6.029,4330,1995,196.919,60.218,13.286
2017-11-15T17:25:11,42.805,6.029,4330,1995,196.969,60.233,13.286
2017-11-15T17:28:11,42.805,6.029,4330,1995,197.033,60.253,13.286
2017-11-15T17:31:11,42.805,6.029,4330,1995,197.002,60.243,13.286
2017-11-15T17:34:11,42.805,6.029,4330,1995,196.992,60.241,13.287
2017-11-15T17:37:11,42.805,6.029,4330,1995,196.872,60.204,13.287
2017-11-15T17:40:11,42.805,6.029,4330,1995,196.918,60.219,13.287
2017-11-15T17:43:11,42.805,6.029,4330,1995,196.867,60.204,13.287
2017-11-15T17:46:11,42.805,6.029,4330,1995,196.786,60.178,13.287
2017-11-15T17:49:11,42.805,6.029,4330,1995,196.996,60.242,13.286
2017-11-15T17:52:11,42.805,6.029,4330,1995,197.037,60.255,13.287
2017-11-15T17:55:11,42.805,6.029,4330,1995,196.957,60.230,13.287
2017-11-15T17:58:11,42.805,6.029,4330,1995,196.940,60.225,13.287
2017-11-15T18:01:11,42.805,6.029,4330,1995,196.841,60.195,13.287
2017-11-15T18:04:11,42.805,6.029,4330,1995,196.937,60.225,13.287
2017-11-15T18:07:11,42.805,6.029,4330,1995,196.800,60.182,13.286